Pendleton, OR

7:53 AM PST on February 13, 2016 (GMT -0800)
Eastern Oreg Regional At Pendleton

Weather History for KPDT - December, 2013

Change the Weather History Date:

Tuesday, December 3, 2013

  Actual Average Record
Temperature  
Mean Temperature 20 °F 35 °F  
Max Temperature 29 °F 42 °F 64 °F (1939)
Min Temperature 10 °F 29 °F 10 °F (2013)
Degree Days  
Heating Degree Days 45 30  
Month to date heating degree days 82 88  
Since 1 July heating degree days 1465 1341  
Cooling Degree Days 0 0  
Month to date cooling degree days 0 0  
Year to date cooling degree days 831 636  
Moisture  
Dew Point 20 °F    
Average Humidity 78    
Maximum Humidity 92    
Minimum Humidity 63    
Precipitation  
Precipitation 0.09 in 0.05 in 0.58 in (1947)
Month to date precipitation 0.33 0.16  
Year to date precipitation 8.81 11.35  
Snow  
Snow 2.40 in 0.10 in 2.40 in (2013)
Month to date snowfall 2.4 0.4  
Year to date snowfall 2.6 9.6  
Since 1 July snowfall 2.4 1.9  
Snow Depth 2.00 in    
Sea Level Pressure  
Sea Level Pressure 30.10 in    
Wind  
Wind Speed 8 mph (NW)    
Max Wind Speed 22 mph    
Max Gust Speed 25 mph    
Visibility 5 miles    
Events Fog , Snow    
T = Trace of Precipitation, MM = Missing Value Source: NWS Daily Summary

Daily Weather History Graph

Daily Weather History Graph

Search for Another Location

Airport or City:

Trip Planner

Search our weather history database for the weather conditions in past years. The results will help you decide how hot, cold, wet, or windy it might be!

Date:

Astronomy

Dec. 03, 2013 Rise Set
Actual Time 7:18 AM PST 4:12 PM PST
Civil Twilight 6:44 AM PST 4:45 PM PST
Nautical Twilight 6:07 AM PST 5:23 PM PST
Astronomical Twilight 5:31 AM PST 5:59 PM PST
Moon 7:51 AM PST (12/3) 5:22 PM PST (12/3)
Length of Visible Light 10h 01m
Length of Day
8h 53m
New Moon, 1% of the Moon is Illuminated
Dec 3
New Moon
Dec 9
First Quarter
Dec 17
Full
Dec 25
Last Quarter
Jan 1
New

Hourly Weather History & Observations

Time (PST) Temp. Windchill Dew Point Humidity Pressure Visibility Wind Dir Wind Speed Gust Speed Precip Events Conditions
12:53 AM 28.0 °F 18.6 °F 26.1 °F 92% 29.96 in 10.0 mi NW 10.4 mph - N/A   Overcast
1:53 AM 28.9 °F 18.6 °F 24.1 °F 82% 29.98 in 10.0 mi North 12.7 mph - N/A   Overcast
2:53 AM 28.0 °F 18.1 °F 18.0 °F 66% 30.00 in 10.0 mi North 11.5 mph - N/A   Overcast
3:00 AM 28.0 °F 18.1 °F 18.0 °F 66% 29.99 in 10.0 mi North 11.5 mph - N/A   Overcast
3:12 AM 28.0 °F 20.0 °F 18.0 °F 66% 29.99 in 10.0 mi NNW 8.1 mph - N/A   Overcast
3:53 AM 27.0 °F 19.5 °F 18.0 °F 69% 30.03 in 5.0 mi North 6.9 mph - 0.00 in Snow Light Snow
4:37 AM 26.1 °F 19.4 °F 19.9 °F 78% 30.01 in 4.0 mi WNW 5.8 mph - 0.00 in Snow Light Snow
4:53 AM 26.1 °F 18.4 °F 19.9 °F 78% 30.04 in 4.0 mi NW 6.9 mph - 0.00 in Snow Light Snow
5:36 AM 25.0 °F 14.8 °F 21.9 °F 88% 30.02 in 2.0 mi WNW 10.4 mph - 0.00 in Snow Light Snow
5:48 AM 24.8 °F 14.6 °F 21.2 °F 86% 30.03 in 2.0 mi WNW 10.4 mph - 0.01 in Snow Light Snow
5:53 AM 25.0 °F 14.8 °F 21.9 °F 88% 30.06 in 1.8 mi WNW 10.4 mph - 0.01 in Snow Light Snow
6:01 AM 25.0 °F 14.8 °F 23.0 °F 92% 30.03 in 1.5 mi WNW 10.4 mph - 0.00 in Snow Light Snow
6:12 AM 25.0 °F 14.2 °F 23.0 °F 92% 30.03 in 1.2 mi West 11.5 mph - 0.00 in Snow Light Snow
6:18 AM 25.0 °F 14.2 °F 23.0 °F 92% 30.03 in 1.5 mi West 11.5 mph - 0.00 in Snow Light Snow
6:23 AM 25.0 °F 13.6 °F 23.0 °F 92% 30.04 in 1.5 mi West 12.7 mph - 0.00 in Snow Light Snow
6:32 AM 25.0 °F 13.6 °F 23.0 °F 92% 30.03 in 2.0 mi West 12.7 mph - 0.01 in Snow Light Snow
6:44 AM 25.0 °F 12.6 °F 23.0 °F 92% 30.04 in 1.8 mi West 15.0 mph - 0.01 in Snow Light Snow
6:53 AM 25.0 °F 13.1 °F 23.0 °F 92% 30.07 in 1.0 mi WNW 13.8 mph - 0.01 in Snow Light Snow
7:00 AM 25.0 °F 13.1 °F 23.0 °F 92% 30.04 in 0.8 mi West 13.8 mph - 0.00 in Snow Light Snow
7:08 AM 25.0 °F 13.6 °F 23.0 °F 92% 30.04 in 1.0 mi WNW 12.7 mph - 0.01 in Snow Light Snow
7:19 AM 25.0 °F 13.1 °F 23.0 °F 92% 30.04 in 1.0 mi WNW 13.8 mph - 0.01 in Snow Light Snow
7:27 AM 25.0 °F 13.1 °F 23.0 °F 92% 30.05 in 0.5 mi NW 13.8 mph - 0.01 in Fog , Snow Snow
7:34 AM 25.0 °F 12.6 °F 23.0 °F 92% 30.05 in 0.5 mi NW 15.0 mph - 0.02 in Fog , Snow Snow
7:41 AM 25.0 °F 13.6 °F 23.0 °F 92% 30.06 in 0.5 mi NW 12.7 mph - 0.02 in Fog , Snow Snow
7:53 AM 25.0 °F 13.1 °F 23.0 °F 92% 30.09 in 0.5 mi NW 13.8 mph - 0.03 in Fog , Snow Snow
8:02 AM 25.0 °F 12.2 °F 23.0 °F 92% 30.06 in 0.2 mi NNW 16.1 mph - 0.01 in Fog , Snow Heavy Snow
8:21 AM 25.0 °F 11.7 °F 21.9 °F 88% 30.07 in 0.5 mi NNW 17.3 mph - 0.02 in Fog , Snow Snow
8:44 AM 24.1 °F 9.8 °F 21.9 °F 91% 30.07 in 0.5 mi NNW 19.6 mph - 0.03 in Fog , Snow Snow
8:53 AM 24.1 °F 10.6 °F 21.0 °F 88% 30.11 in 0.5 mi NNW 17.3 mph - 0.03 in Fog , Snow Snow
9:24 AM 24.1 °F 10.1 °F 21.9 °F 91% 30.09 in 1.2 mi NW 18.4 mph - 0.01 in Snow Light Snow
9:40 AM 24.1 °F 12.0 °F 19.9 °F 84% 30.10 in 2.0 mi NW 13.8 mph - 0.01 in Snow Light Snow
9:53 AM 24.1 °F 12.0 °F 19.0 °F 81% 30.14 in 1.8 mi NW 13.8 mph - 0.01 in Snow Light Snow
10:01 AM 23.0 °F 10.1 °F 19.0 °F 85% 30.11 in 2.5 mi NNW 15.0 mph - 0.00 in Snow Light Snow
10:08 AM 23.0 °F 11.1 °F 19.0 °F 85% 30.12 in 3.0 mi NNW 12.7 mph - 0.00 in Snow Light Snow
10:53 AM 23.0 °F 14.7 °F 18.0 °F 81% 30.15 in 10.0 mi NW 6.9 mph - 0.00 in   Overcast
11:16 AM 25.0 °F 18.1 °F 17.1 °F 72% 30.12 in 10.0 mi North 5.8 mph - N/A   Overcast
11:53 AM 26.1 °F 20.5 °F 17.1 °F 69% 30.15 in 9.0 mi NNW 4.6 mph - 0.00 in   Overcast
12:09 PM 25.0 °F 18.1 °F 18.0 °F 75% 30.12 in 10.0 mi North 5.8 mph - N/A   Overcast
12:20 PM 26.1 °F 20.5 °F 19.0 °F 75% 30.12 in 10.0 mi North 4.6 mph - N/A   Overcast
12:53 PM 25.0 °F 17.1 °F 19.0 °F 78% 30.16 in 10.0 mi NNW 6.9 mph - N/A   Overcast
1:53 PM 25.0 °F 19.3 °F 19.0 °F 78% 30.17 in 10.0 mi WNW 4.6 mph - N/A   Overcast
2:53 PM 24.1 °F 16.0 °F 19.9 °F 84% 30.18 in 9.0 mi WSW 6.9 mph - 0.00 in   Overcast
3:53 PM 24.1 °F 16.0 °F 19.9 °F 84% 30.20 in 10.0 mi West 6.9 mph - N/A   Overcast
4:53 PM 24.1 °F 16.0 °F 19.0 °F 81% 30.20 in 10.0 mi West 6.9 mph - N/A   Overcast
5:05 PM 24.1 °F 17.0 °F 18.0 °F 77% 30.17 in 10.0 mi West 5.8 mph - N/A   Overcast
5:53 PM 24.1 °F - 19.0 °F 81% 30.21 in 10.0 mi Calm Calm - N/A   Overcast
6:53 PM 21.9 °F 15.7 °F 18.0 °F 85% 30.22 in 10.0 mi WNW 4.6 mph - N/A   Overcast
7:53 PM 21.9 °F 15.7 °F 17.1 °F 82% 30.22 in 10.0 mi WNW 4.6 mph - N/A   Overcast
8:53 PM 21.9 °F 14.5 °F 16.0 °F 78% 30.22 in 10.0 mi WNW 5.8 mph - N/A   Overcast
9:53 PM 17.1 °F 8.7 °F 12.0 °F 81% 30.22 in 10.0 mi WNW 5.8 mph - N/A   Partly Cloudy
10:53 PM 14.0 °F - 10.0 °F 84% 30.24 in 10.0 mi Calm Calm - N/A   Clear
11:53 PM 10.0 °F -0.9 °F 7.0 °F 87% 30.25 in 10.0 mi WNW 6.9 mph - N/A   Partly Cloudy